FREGAT R/B, 40352

Orbit data source: Space-Track

FREGAT R/B, 40352 is space debris originally from a launch on Thu, 18 Dec 2014 UTC launched from the French Guiana (FRGUI). Debris objects in space refer to the collection of defunct objects orbiting the Earth. Examples of debris include non-operational satellites, rocket bodies, and fragments generated from explosions, collisions, or faulty payload assembly.

Loading next visibility...
Identifier
40352, 2014-083E
Orbit
Active
Country
Flag of CISCIS
Related business
Manufacturer
Lavochkin
Mission
Spacecraft
Bus & Motor
FREGAT, Unknown motor
Mass
1,050 kg wet, 1,050 kg dry
Launch date (UTC)
2014-12-18 (11 years ago)
Launch vehicle
Unknown
Launch site
French Guiana (FRGUI)
Object type
Payload
Rocket body
Debris
Shape & HBR
Irr, 1.6 m
Radar Cross Section
11.055 m², Large (>1 m²)

Expand to show TLE details & history
Last TLE update: 23 hours ago

TLE from 23 hours ago
0 FREGAT R/B
1 40352U 14083E   25307.51000100 -.00000008  00000-0  00000-0 0  9993
2 40352   0.0988 305.4149 0009050 291.0418 123.4646  5.20672487206933
Epoch: 2025-11-03T12:14Z
TLE epoch observation values (Epoch: 2025-11-03T12:14:24.086Z)
Latitude
0.08504°
Longitude
133.38932°
Altitude
7,688.624 km
Speed
5.323 km/s
True Right ascension
00h 00m 00s
True Declination
0° 05' 05"
Sunlit
Object was in daylight at epoch
Visualization orbit readout
Latitude
Unknown
Longitude
Unknown
Altitude
Unknown
Speed
Unknown
Apparent Right ascension
Unknown
Apparent Declination
Unknown
Sunlit
N/A
Visualization observer readout
Local Sidereal Time
07:38:00
Azimuth
Unknown
Elevation
Unknown
Doppler factor
Unknown
Orbital elements
Apogee altitude
7,699.031 km
Perigee altitude
7,673.574 km
Semi-major axis
14,064.44 km
Eccentricity
0.00091
Inclination
0.0988°
RAAN
305.4149°
Arg. of periapsis
291.0418°
True anomaly
123.55106°
Mean anomaly
123.4646°
Eccentric anomaly
123.50784°
Mean motion
1.30125 °/min
Orbital period
276.66 mins
BSTAR
0
Loading maneuver chart data...
Computing Atmospheric mass density...
Loading historical data...
Loading historical data...
Loading historical data...
Loading historical data...
Loading historical data...
Loading historical data...
Loading historical data...
Other satellites on launch #83 in the year 2014 (2014-12-18 UTC)

Documentation

Showing up to 5 results
|